Flag for Namibia Weather past 2 weeks in Swakopmund, Namibia

Now
59 °F

Cool.


Feels Like: 59 °F
Forecast: 60 / 72 °F
Wind: 2 mph from East

Location: Walvis Bay

Current Time: Mar 1, 2015 at 6:33:01 AM

Latest Report: Mar 1, 2015 at 3:00 AM


Visibility: N/A

Pressure: 29.95 "Hg

Humidity: 77%

Dew point: 52 °F

Location of SwakopmundLocation

Historic Weather in Swakopmund — Graph

°F

Swakopmund temperature yesterday

Maximum temperature yesterday: 66 °F (at 11:00 AM)
Minimum temperature yesterday: 57 °F (at 12:00 AM)
Average temperature yesterday: 61 °F

Past Weeks' High & Low Weather Summary

 TemperatureHumidityPressure
High81 °F (Feb 19, 1:00 PM)94% (Feb 20, 4:00 AM)30.01 "Hg (Feb 20, 4:00 AM)
Low55 °F (Feb 18, 6:00 AM)37% (Feb 19, 3:00 PM)29.80 "Hg (Feb 19, 5:00 PM)
Average64 °F71%29.92 "Hg
* Reported Feb 14 3:00 AM — Mar 1 3:00 AM, Swakopmund, Weather by CustomWeather, © 2015

Note: Actual official high and low records may vary slightly from our data, if they occured in-between our weather recording intervals... More about our weather records

Advertising

Swakopmund weather history for previous 24 hours

 ConditionsComfort  
Time TempWeatherWind HumidityBarometerVisibility
3:00 AM
Sun, Mar 1
59 °FCool.2 mph77%29.95 "HgN/A
2:00 AM57 °FCool.5 mph82%29.98 "HgN/A
1:00 AM57 °FCool.3 mph82%29.98 "HgN/A
12:00 AM57 °FCool.6 mph77%29.98 "HgN/A
11:00 PM
Sat, Feb 28
59 °FCool.8 mph77%29.98 "HgN/A
10:00 PM59 °FCool.8 mph77%29.98 "HgN/A
9:00 PM61 °FCool.7 mph72%29.98 "HgN/A
8:00 PM61 °FCool.8 mph77%29.95 "HgN/A
7:00 PM61 °FCool.7 mph72%29.95 "HgN/A
6:00 PM63 °FMild.12 mph73%29.92 "HgN/A
5:00 PM64 °FMild.12 mph68%29.95 "HgN/A
4:00 PM66 °FMild.12 mph64%29.95 "HgN/A
3:00 PM66 °FMild.12 mph60%29.95 "HgN/A
2:00 PM66 °FSunny.13 mph60%29.95 "Hg10 mi
11:00 AM66 °FPassing clouds.12 mph60%30.01 "HgN/A
10:00 AM63 °FMild.10 mph64%30.01 "HgN/A
9:00 AM61 °FPartly sunny.9 mph68%30.01 "HgN/A
8:00 AM59 °FOvercast.12 mph77%30.01 "HgN/A
7:00 AM57 °FCool.10 mph82%29.98 "HgN/A
6:00 AM57 °FOvercast.8 mph82%29.98 "HgN/A
Weather by CustomWeather, © 2015

See weather overviewHow to use our weather pages